Syracuse, NY

12:50 PM EDT on June 25, 2018 (GMT -0400)
Syracuse Hancock International

Weather History for KSYR - January, 2017

Change the Weather History Date:

Thursday, January 12, 2017

  Actual Average Record
Temperature  
Mean Temperature 45 °F 23 °F  
Max Temperature 54 °F 31 °F 62 °F (2018)
Min Temperature 35 °F 16 °F -25 °F (1982)
Degree Days  
Heating Degree Days 20 42  
Month to date heating degree days 467 491  
Since 1 July heating degree days 2752 2944  
Cooling Degree Days 0 0  
Month to date cooling degree days 0 0  
Year to date cooling degree days 0 0  
Moisture  
Dew Point 43 °F    
Average Humidity 89    
Maximum Humidity 100    
Minimum Humidity 77    
Precipitation  
Precipitation 0.27 in 0.08 in 1.70 in (1915)
Month to date precipitation 1.28 1.05  
Year to date precipitation 1.28 1.05  
Snow  
Snow 0.00 in 1.20 in 6.20 in (1999)
Month to date snowfall 4.7 12.8  
Since 1 July snowfall 67.3 55.4  
Snow Depth 0.00 in    
Sea Level Pressure  
Sea Level Pressure 29.90 in    
Wind  
Wind Speed 14 mph (WSW)    
Max Wind Speed 25 mph    
Max Gust Speed 35 mph    
Visibility 9 miles    
Events Rain    
T = Trace of Precipitation, MM = Missing Value Source: NWS Daily Summary

Daily Weather History Graph

Daily Weather History Graph

Search for Another Location

Airport or City:

Astronomy

Jan. 12, 2017 Rise Set
Actual Time 7:34 AM EST 4:51 PM EST
Civil Twilight 7:02 AM EST 5:23 PM EST
Nautical Twilight 6:27 AM EST 5:58 PM EST
Astronomical Twilight 5:53 AM EST 6:32 PM EST
Moon 5:28 PM EST (1/12) 7:22 AM EST (1/12)
Length of Visible Light 10h 20m
Length of Day
9h 17m
Full, 100% of the Moon is Illuminated
Jan 12
Full
Jan 19
Last Quarter
Jan 27
New
Feb 3
First Quarter
Feb 10
Full

Hourly Weather History & Observations

Time (EST) Temp. Windchill Dew Point Humidity Pressure Visibility Wind Dir Wind Speed Gust Speed Precip Events Conditions
12:54 AM 46.9 °F - 41.0 °F 80% 29.86 in 10.0 mi South 19.6 mph 32.2 mph N/A   Mostly Cloudy
1:54 AM 48.0 °F - 42.1 °F 80% 29.84 in 10.0 mi South 16.1 mph 29.9 mph 0.00 in Rain Light Rain
2:54 AM 48.0 °F - 43.0 °F 83% 29.82 in 10.0 mi South 23.0 mph 34.5 mph 0.01 in   Overcast
3:54 AM 50.0 °F - 44.1 °F 80% 29.78 in 10.0 mi South 16.1 mph 28.8 mph 0.01 in   Overcast
4:54 AM 51.1 °F - 45.0 °F 80% 29.78 in 10.0 mi South 19.6 mph 29.9 mph N/A   Overcast
5:54 AM 52.0 °F - 45.0 °F 77% 29.78 in 10.0 mi South 21.9 mph 32.2 mph 0.00 in   Overcast
6:54 AM 53.1 °F - 46.0 °F 77% 29.79 in 10.0 mi South 19.6 mph 29.9 mph N/A   Overcast
7:54 AM 53.1 °F - 46.9 °F 80% 29.79 in 10.0 mi South 17.3 mph - N/A   Mostly Cloudy
8:54 AM 54.0 °F - 46.9 °F 77% 29.81 in 10.0 mi South 16.1 mph - N/A   Overcast
9:54 AM 54.0 °F - 48.0 °F 80% 29.82 in 10.0 mi South 17.3 mph - 0.00 in   Overcast
10:54 AM 53.1 °F - 48.0 °F 83% 29.83 in 10.0 mi South 11.5 mph - 0.00 in Rain Light Rain
11:54 AM 53.1 °F - 48.0 °F 83% 29.81 in 10.0 mi South 13.8 mph - 0.00 in   Overcast
12:54 PM 54.0 °F - 48.9 °F 83% 29.78 in 10.0 mi South 13.8 mph - N/A   Overcast
1:54 PM 53.1 °F - 51.1 °F 93% 29.79 in 4.0 mi South 15.0 mph - 0.04 in Rain Rain
2:54 PM 51.1 °F - 48.9 °F 92% 29.81 in 8.0 mi NW 20.7 mph 25.3 mph 0.08 in Rain Light Rain
3:01 PM 46.0 °F 38.5 °F 45.0 °F 96% 29.85 in 8.0 mi NW 19.6 mph 31.1 mph 0.00 in Rain Light Rain
3:05 PM 46.0 °F 37.6 °F 44.1 °F 93% 29.85 in 8.0 mi NW 24.2 mph 31.1 mph 0.00 in Rain Rain
3:21 PM 45.0 °F 39.3 °F 44.1 °F 97% 29.87 in 2.5 mi NW 11.5 mph - 0.05 in Rain Heavy Rain
3:30 PM 44.1 °F 40.1 °F 44.1 °F 100% 29.86 in 3.0 mi NW 6.9 mph - 0.07 in Rain Rain
3:39 PM 44.1 °F - 44.1 °F 100% 29.84 in 3.0 mi Calm Calm - 0.10 in Rain Heavy Rain
3:54 PM 44.1 °F 40.8 °F 43.0 °F 96% 29.83 in 5.0 mi SE 5.8 mph - 0.13 in Rain Light Rain
4:54 PM 43.0 °F - 43.0 °F 100% 29.86 in 10.0 mi Calm Calm - 0.00 in Rain Light Rain
5:02 PM 43.0 °F - 43.0 °F 100% 29.87 in 10.0 mi Calm Calm - 0.00 in   Overcast
5:47 PM 43.0 °F 41.3 °F 43.0 °F 100% 29.90 in 10.0 mi West 3.5 mph - 0.00 in   Overcast
5:54 PM 43.0 °F 40.3 °F 43.0 °F 100% 29.90 in 10.0 mi WNW 4.6 mph - 0.00 in   Overcast
6:42 PM 43.0 °F 37.2 °F 42.1 °F 97% 29.94 in 10.0 mi WNW 10.4 mph - N/A   Overcast
6:54 PM 42.1 °F 35.2 °F 41.0 °F 96% 29.95 in 10.0 mi WNW 12.7 mph - N/A   Overcast
7:09 PM 42.1 °F 36.6 °F 41.0 °F 96% 29.97 in 10.0 mi WNW 9.2 mph - N/A   Overcast
7:22 PM 41.0 °F 34.3 °F 39.9 °F 96% 29.98 in 10.0 mi WNW 11.5 mph - N/A   Overcast
7:29 PM 41.0 °F 34.3 °F 39.9 °F 96% 29.99 in 10.0 mi WNW 11.5 mph - N/A   Overcast
7:54 PM 39.9 °F 33.4 °F 39.0 °F 97% 30.02 in 10.0 mi West 10.4 mph - N/A   Overcast
8:25 PM 39.0 °F 31.4 °F 37.9 °F 96% 30.04 in 10.0 mi West 12.7 mph - N/A   Overcast
8:41 PM 39.0 °F 31.0 °F 37.0 °F 93% 30.06 in 10.0 mi West 13.8 mph - N/A   Overcast
8:54 PM 39.0 °F 31.4 °F 37.0 °F 93% 30.07 in 9.0 mi West 12.7 mph - 0.00 in   Light Drizzle
9:54 PM 37.0 °F 28.9 °F 35.1 °F 93% 30.12 in 10.0 mi WNW 12.7 mph - 0.00 in   Overcast
10:17 PM 36.0 °F 27.5 °F 35.1 °F 97% 30.13 in 4.0 mi WNW 12.7 mph - 0.00 in   Light Drizzle
10:43 PM 36.0 °F 28.5 °F 35.1 °F 97% 30.15 in 5.0 mi WNW 10.4 mph - 0.00 in   Overcast
10:54 PM 36.0 °F 28.5 °F 35.1 °F 97% 30.16 in 4.0 mi WNW 10.4 mph - 0.00 in   Light Drizzle
11:54 PM 35.1 °F 25.5 °F 34.0 °F 96% 30.18 in 7.0 mi West 15.0 mph - 0.00 in   Overcast